Regional Weather Roundup
Issued by NWS

Home | Current Version | Previous Version | Text Only | Print | Product List | Glossary Off
Versions: 1 2 3 4 5 6 7 8 9 10 11 12 13 14 15 16 17 18 19 20 21 22 23 24 25 26 27 28 29 30 31 32 33 34 35 36 37 38 39 40 41 42 43 44 45 46 47 48 49 50

323
ASUS45 KBOU 230210
RWRCO

WEATHER ROUNDUP FOR COLORADO
NATIONAL WEATHER SERVICE PUEBLO CO
700 PM MST THU FEB 22 2018

NOTE: "FAIR" INDICATES FEW OR NO CLOUDS BELOW 12000 FEET WITH NO
SIGNIFICANT WEATHER AND/OR OBSTRUCTIONS TO VISIBILITY.

COZ001>005-013-030-031-230300-
...NORTHWEST COLORADO...

CITY           SKY/WX    TMP DP  RH WIND       PRES   REMARKS
CRAIG          CLOUDY    22  18  85 CALM      29.96R
HAYDEN         SNOW      19  18  93 CALM      29.97R VSB 1/2
MEEKER         LGT SNOW  23  20  88 SW3       29.94R VSB 3/4
RABBIT EARS PA NOT AVBL
STEAMBOAT SPGS CLOUDY    19  18  96 CALM      29.92R
WALDEN         CLOUDY    16   9  73 SE3       29.90R
$$

COZ006>008-011-230300-
...WEST CENTRAL VALLEYS...

CITY           SKY/WX    TMP DP  RH WIND       PRES   REMARKS
GRAND JUNCTION CLOUDY    28  26  92 E7        29.98R WCI  21
MONTROSE       CLOUDY    31  15  52 W8        29.98R WCI  23
EAGLE          FLURRIES  25  18  74 CALM      29.97R
RIFLE          LGT SNOW  27  25  92 SE3       29.98R FOG
DELTA          NOT AVBL
NUCLA          CLOUDY    32  12  43 SW8       29.99R WCI  25
$$

COZ017>023-064>068-230300-
...SOUTHWEST COLORADO...

CITY           SKY/WX    TMP DP  RH WIND       PRES   REMARKS
DURANGO        MOCLDY    28  12  51 VRB3      29.98R
CORTEZ         CLOUDY    31   3  30 S5        29.97R WCI  26
PAGOSA SPRINGS MOCLDY    21  12  67 CALM      30.00R
TELLURIDE      CLOUDY    19   6  56 S6        29.94R WCI  11
WOLF CREEK PAS CLOUDY     5   3  92 S17G26    29.91R WCI -14
$$

COZ009-010-012-014-032>034-037-058>063-230300-
...CENTRAL COLORADO...

CITY           SKY/WX    TMP DP  RH WIND       PRES   REMARKS
ASPEN          CLOUDY    20  13  74 N3        29.90R
BUENA VISTA    FAIR      23   8  54 W12       29.90R WCI  11
COPPER MTN     CLOUDY    10  -4  52 S14G21    29.82R WCI  -5
BERTHOUD PASS  FAIR       1  -9  60 MISG      29.79R
COTTONWOOD PAS CLOUDY    21  10  63 NW7       29.88R WCI  13
GUNNISON       CLOUDY    24   9  52 S6        29.94R WCI  17
KREMMLING      PTCLDY    25  12  58 E5        29.92R WCI  19
LEADVILLE      MOCLDY    10  -7  46 SE7       29.85R WCI  -1
MONARCH PASS   LGT SNOW   7   3  85 SW22      29.94R VSB 3/4 WCI -14
SALIDA         FAIR      26  13  58 SW10G16   30.00R WCI  16
SUNLIGHT       LGT SNOW   9   5  85 SW10G22   29.89R VSB 3/4 WCI  -6
WILKERSON PASS MOCLDY     9   1  72 SW12G18   29.86S WCI  -6
$$

COZ069>075-230300-
...SAN LUIS VALLEY/SANGRE DE CRISTO MOUNTAINS...

CITY           SKY/WX    TMP DP  RH WIND       PRES   REMARKS
ALAMOSA        CLEAR     19   9  65 S8        29.98R WCI   9
DEL NORTE      FAIR      21   8  56 SW6       29.96R WCI  14
LA VETA PASS   MOCLDY    14   9  79 S24G37    30.01R WCI  -5
SAGUACHE       NOT AVBL
$$

COZ035-036-038>040-230300-
...NORTHERN COLORADO FRONT RANGE...

CITY           SKY/WX    TMP DP  RH WIND       PRES   REMARKS
DENVER INTL AP LGT SNOW  21  17  84 W9        30.00R FOG     WCI  11
DMNS CITY PARK NOT AVBL
AURORA         MOCLDY    19  18  96 CALM      30.00R
FRONT RANGE AP LGT SNOW  23  19  86 W7        30.01R WCI  15
ERIE MUNI ARPT LGT SNOW  24  17  76 CALM      30.07R
BOULDER MUN AP CLOUDY    23  18  80 CALM      30.01R
CENTENNIAL     LGT SNOW  20  19  96 NW3       29.98R FOG
BROOMFIELD     LGT SNOW  21  19  93 CALM      30.00R VSB 1
LOVELAND       MOCLDY    21  15  78 CALM      30.03R
LONGMONT       CLOUDY    25  16  67 CALM      30.05R
$$

COZ041-046-047-076>085-087-088-230300-
...PIKES PEAK/PALMER DIVIDE AND SOUTHERN FOOTHILLS...

CITY           SKY/WX    TMP DP  RH WIND       PRES   REMARKS
COLO. SPRINGS  PTCLDY    28  21  75 NE5       29.94R WCI  23
A. F. ACADEMY  PTCLDY    23  17  78 N9        29.94R WCI  13
SCHRIEVER AFB  NOT AVBL
CHEYENNE MTN   NOT AVBL
ELLICOTT         N/A    N/A N/A N/A E10       29.93R
FALCON         FAIR      21  19  92 N7        29.94R WCI  13
FORT CARSON    CLEAR     28  21  75 N13       29.93R WCI  17
LIMON          PTCLDY    21  19  92 N10       29.99R WCI  10
MONUMENT HILL  CLOUDY    19  18  93 NW5       29.95R FOG     WCI  13
CANON CITY     CLEAR     36  18  48 W9        29.92R
WALSENBURG     FAIR      34  12  40 SW15G23   29.96S WCI  24
TRINIDAD       CLEAR     33   5  30 W13       29.98R WCI  24
$$

COZ042>045-048>051-090-091-230300-
...NORTHEAST COLORADO...

CITY           SKY/WX    TMP DP  RH WIND       PRES   REMARKS
GREELEY ARPT   PTCLDY    18  14  84 NW5       30.04R WCI  11
AKRON          CLOUDY    22  18  85 N6        30.00R WCI  14
BURLINGTON     CLEAR     20  17  88 NE8       30.02R WCI  10
WRAY           CLOUDY    27  21  80 E5        30.05R WCI  21
YUMA           NOT AVBL
STERLING       CLOUDY    23  19  86 CALM      30.04R
HOLYOKE        FAIR      25  21  86 NE6       30.05R WCI  18
FORT MORGAN    CLOUDY    26  16  67 N7        30.04R WCI  18
$$

COZ086-089-092>099-230300-
...SOUTHEAST COLORADO...

CITY           SKY/WX    TMP DP  RH WIND       PRES   REMARKS
PUEBLO         CLEAR     38  13  35 S5        29.92R
LA JUNTA       CLEAR     31  19  61 N6        29.96R WCI  25
LAMAR          CLEAR     35  19  52 E6        29.94R WCI  30
SPRINGFIELD      N/A     40  11  30 SW12      29.95R
$$





USA.gov is the U.S. government's official web portal to all federal, state and local government web resources and services.